Regional Weather Roundup
Issued by NWS Mobile, AL

Current Version | Previous Version | Text Only | Print | Product List | Glossary On
Versions: 1 2 3 4 5 6 7 8 9 10 11 12 13 14 15 16 17 18 19 20 21 22 23 24 25 26 27 28 29 30 31 32 33 34 35 36 37 38 39 40 41 42 43 44 45 46 47 48 49 50
000
ASUS44 KMOB 222010
RWRMOB
REGIONAL WEATHER ROUNDUP
NATIONAL WEATHER SERVICE MOBILE AL
200 PM CST MON DEC 22 2014

NOTE: "FAIR" INDICATES FEW OR NO CLOUDS BELOW 12,000 FEET WITH NO
      SIGNIFICANT WEATHER AND/OR OBSTRUCTIONS TO VISIBILITY.

  * THESE STATIONS ARE PART OF THE UNIVERSITY OF SOUTH ALABAMA
    MESONET AND ARE NOT UNDER NWS OR FAA QUALITY CONTROL.

ALZ061>064-222100-
COASTAL ALABAMA

CITY           SKY/WX    TMP DP  RH WIND       PRES   REMARKS
MOBILE REG APT PTSUNNY   68  65  90 S6        29.76F FOG
BROOKLEY FIELD LGT RAIN  67  63  87 SE14G24   29.77F
USA CAMPUS*      N/A     68  64  88 SE3       29.77F
DOG RIVER*     NOT AVBL


CITY           SKY/WX    TMP DP  RH WIND       PRES   REMARKS
MOUNT VERNON*    N/A     61  59  94 CALM      29.78F
SARALAND*      NOT AVBL
BAY MINETTE*   NOT AVBL
LOXLEY*          N/A     72  64  78 SE10      29.77F
ROBERTSDALE*     N/A     70  64  83 S9        29.77F
FAIRHOPE*        N/A     72  66  83 S7        29.76F
ELBERTA*         N/A     68  64  88 SE6       29.77S
FOLEY*           N/A     61  59  94 E3        29.79F
GRAND BAY*       N/A     70  66  88 SW9       29.75F
DAUPHIN ISLND* NOT AVBL
BON SCOUR NWR* NOT AVBL
GULF SHORES    CLOUDY    69  65  88 CALM      29.78S

$$

ALZ051>060-222100-
INTERIOR SOUTHWEST AND SOUTH CENTRAL ALABAMA

CITY           SKY/WX    TMP DP  RH WIND       PRES   REMARKS
GREENVILLE     CLOUDY    55  53  93 SE7       29.81S
EVERGREEN      LGT RAIN  62  59  90 E8        29.80S
CASTLEBERRY*   NOT AVBL
ATMORE*          N/A     68  64  88 SE6       29.79F
DIXIE*           N/A     59  57  94 SE5       29.79F
ANDALUSIA/OPP  CLOUDY    62  56  80 SE6       29.81F
ANDALUSIA*       N/A     57  57 100 E8        29.81F
FLORALA APT    CLOUDY    60  57  89 E6        29.83F
FLORALA*         N/A     61  59  94 E3        29.79F

$$

FLZ001>006-222100-
WESTERN FLORIDA PANHANDLE

CITY           SKY/WX    TMP DP  RH WIND       PRES   REMARKS
PENSACOLA      PTSUNNY   65  61  87 SE10      29.79F
NAS PENSACOLA  PTSUNNY   71  63  75 SE15      29.78F
MILTON         PTSUNNY   69  62  78 SE13      29.79S
WHTNG S FIELD  PTSUNNY   71  62  73 S14       29.79F


CITY           SKY/WX    TMP DP  RH WIND       PRES   REMARKS
WALNUT HILL*   NOT AVBL
JAY*           NOT AVBL
DUKE FIELD     PTSUNNY   69  62  80 S9        29.80F
CRESTVIEW      PTSUNNY   70  62  76 SE8       29.81F
VALPARAISO     CLOUDY    64  62  91 SE7       29.81F
DESTIN         CLOUDY    65  62  90 SE7       29.80F

$$

MSZ076-079-222100-
INTERIOR SOUTHEAST MISSISSIPPI

CITY           SKY/WX    TMP DP  RH WIND       PRES   REMARKS
LEAKESVILLE*   NOT AVBL
AGRICOLA*      NOT AVBL

$$

MARINE OBSERVATIONS

STATION/POSITION TIME  TEMP    WIND        PRES    WAVE
                       AIR SEA DIR/SP/G            HT/PER
                 (UTC) (F)     (DEG/KT/KT) (MB)    (FT/S)
PASCAGOULA       2000   65     150/  9/ 11 1007.6F
PETIT BOIS ISLND 2000   65     160/  9/ 11 1008.2F
GRAND BAY        1900   62     140/  8     1009.0S
KATRINA CUT      1900   64     150/ 14     1008.8F
CEDAR POINT      1900   65     140/ 14     1008.5F
E DAUPHIN ISLAND 2000   67     150/ 14/ 16 1007.9F
MIDDLE BAY LIGHT 1900   63     140/ 17     1007.5F
USCG MOBILE BAY  2000   65 58  170/ 10/ 16 1006.5F
STATE DOCKS      2000   68 58              1007.0F
MEAHER PARK      1900   72     150/ 10     1007.5F
WEEKS BAY        1900   74                   N/A
FORT MORGAN      2000   68     160/ 19/ 22 1007.6S
12 S ORANGE BCH  2000   70 71  120/ 16/ 19 1007.5F   3/ 5
PENSACOLA BAY    2000   70 59  110/  2/  6 1008.5F
64 S DAUPHIN ISL 2000   74 74  230/ 16/ 17 1008.2F   3/ 4

$$

SELECTED LOCATIONS ACROSS THE REGION

CITY           SKY/WX    TMP DP  RH WIND       PRES   REMARKS
NEW ORLEANS    MOSUNNY   76  65  68 S18G26    29.71F
GULFPORT       FOG       67  65  93 S9        29.74F VSB 1/2
PASCAGOULA AP  CLOUDY    71  67  87 S7        29.76F
PASCAGOULA*      N/A     68  64  88 CALM      29.76F
HATTIESBURG    CLOUDY    67  63  87 SE10      29.74F
LAUREL         CLOUDY    63  59  88 SE7       29.73F
MERIDIAN       CLOUDY    60  58  92 S7        29.74F
JACKSON        CLOUDY    61  58  90 S7        29.70F FOG
MONTGOMERY     TSTM      54  52  94 E9        29.84F FOG
TROY           CLOUDY    54  53  97 E6        29.84F
KINSTON*       NOT AVBL
GENEVA*          N/A     59  57  94 SE5       29.85F
ASHFORD*         N/A     57  57 100 E8        29.81F
DOTHAN         CLOUDY    55  54  96 E10       29.87F FOG
PANAMA CITY    LGT RAIN  65  63  93 CALM      29.81F FOG

$$



USA.gov is the U.S. government's official web portal to all federal, state and local government web resources and services.